Probability
0 0 0 0 0 0 0 0 0 0 0 0 0 0 0 0 0 0 0 0 0 0 0 0 0 0 0 0 0 0 0 0 0 0 0 0 0 0 0 0 0 0 0
0 0 0 0 0 0 0 0 0 0 0 0 0 0 0 0 0 0 0 0 0 0 0 0 0 0 0 0 0 0 0 0 0 0 0 0 0 0 0 0 0 0 0
0 0 0 0 0 0 0 0 0 0 0 0 0 0 0 0 0 0 0 0 0 0 0 0 0 0 0 0 0 0 0 0 0 0 0 0 0 0 0 0 0 0 0
0 0 0 0 0 0 0 0 0 0 0 0 0 0 0 0 0 0 0 0 0 0 0 0 0 0 0 0 0 0 0 0 0 0 0 0 0 0 0 0 0 0 0
0 0 0 0 0 0 0 0 0 0 0 0 0 0 0 0 0 0 0 0 0 0 0 0 0 0 0 0 0 0 0 0 0 0 0 0 0 0 0 0 0 0 0
0 0 0 0 0 0 0 0 0 0 0 0 0 0 0 0 0 0 0 0 0 0 0 0 0 0 0 0 0 0 0 0 0 0 0 0 0 0 0 0 0 0 0
0 0 0 0 0 0 0 0 0 0 0 0 0 0 0 0 0 0 0 0 0 0 0 0 0 0 0 0 0 0 0 0 0 0 0 0 0 0 0 0 0 0 0
0 0 0 0 0 0 0 0 0 0 0 0 0 0 0 0 0 0 0 0 0 0 0 0 0 0 0 0 0 0 0 0 0 0 0 0 0 0 0 0 0 0 0
0 0 0 0 0 0 0 0 0 0 0 0 0 0 0 0 0 0 0 0 0 0 0 0 0 0 0 0 0 0 0 0 0 0 0 0 0 0 0 0 0 0 0
0 0 0 0 0 0 0 0 0 0 0 0 0 0 0 0 0 0 0 0 0 0 0 0 0 0 0 0 0 0 0 0 0 0 0 0 0 0 0 0 0 0 0
0 0 0 0 0 0 0 0 0 0 0 0 0 0 0 0 0 0 0 0 0 0 0 0 0 0 0 0 0 0 0 0 0 0 0 0 0 0 0 0 0 0 0
0 0 0 0 0 0 0 0 0 0 0 0 0 0 0 0 0 0 0 0 0 0 0 0 0 0 0 0 0 0 0 0 0 0 0 0 0 0 0 0 0 0 0
0 0 0 0 0 0 0 0 0 0 0 0 0 0 0 0 0 0 0 0 0 0 0 0 0 0 0 0 0 0 0 0 0 0 0 0 0 0 0 0 0 0 0
0 0 0 0 0 0 0 0 0 0 0 0 0 0 0 0 0 0 0 0 0 0 0 0 0 0 0 0 0 0 0 0 0 0 0 0 0 0 0 0 0 0 0
0 0 0 0 0 0 0 0 0 0 0 0 0 0 0 0 0 0 0 0 0 0 0 0 0 0 0 0 0 0 0 0 0 0 0 0 0 0 0 0 0 0 0
0 0 0 0 0 0 0 0 0 0 0 0 0 0 0 0 0 0 0 0 0 0 0 0 0 0 0 0 0 0 0 0 0 0 0 0 0 0 0 0 0 0 0
0 0 0 0 0 0 0 0 0 0 0 0 0 0 0 0 0 0 0 0 0 0 0 0 0 0 0 0 0 0 0 0 0 0 0 0 0 0 0 0 0 0 0
0 0 0 0 0 0 0 0 0 0 0 0 0 0 0 0 0 0 0 0 0 0 0 0 0 0 0 0 0 0 0 0 0 0 0 0 0 0 0 0 0 0 0
0 0 0 0 0 0 0 0 0 0 0 0 0 0 0 0 0 0 0 0 0 0 0 0 0 0 0 0 0 0 0 0 0 0 0 0 0 0 0 0 0 0 0
0 0 0 0 0 0 0 0 0 0 0 0 0 0 0 0 0 0 0 0 0 0 0 0 0 0 0 0 0 0 0 0 0 0 0 0 0 0 0 0 0 0 0
0 0 0 0 0 0 0 0 0 0 0 0 0 0 0 0 0 0 0 0 0 0 0 0 0 0 0 0 0 0 0 0 0 0 0 0 0 0 0 0 0 0 0
0 0 0 0 0 0 0 0 0 0 0 0 0 0 0 0 0 0 0 0 0 0 0 0 0 0 0 0 0 0 0 0 0 0 0 0 0 0 0 0 0 0 0
0 0 0 0 0 0 0 0 0 0 0 0 0 0 0 0 0 0 0 0 0 0 0 0 0 0 0 0 0 0 0 0 0 0 0 0 0 0 0 0 0 0 0
0 0 0 0 0 0 0 0 0 0 0 0 0 0 0 0 0 0 0 0 0 0 0 0 0 0 0 0 0 0 0 0 0 0 0 0 0 0 0 0 0 0 0
0 0 0 0 0 0 0 0 0 0 0 0 0 0 0 0 0 0 0 0 0 0 0 0 0 0 0 0 0 0 0 0 0 0 0 0 0 0 0 0 0 0 0
0 0 0 0 0 0 0 0 0 0 0 0 0 0 0 0 0 0 0 0 0 0 0 0 0 0 0 0 0 0 0 0 0 0 0 0 0 0 0 0 0 0 0
Wind_Speed
4 4 3 3 2 2 2 2 1 1 1 2 1 1 1 1 1 1 1 1 1 1 1 1 1 1 1 1 2 2 3 4 5 5 5 5 7 7 7 7 7 8 8
4 4 3 2 2 2 2 2 2 2 2 1 1 1 1 1 1 2 2 1 2 1 1 1 1 1 2 2 2 2 3 3 5 7 6 5 7 8 8 9 7 7 8
4 4 4 3 3 3 2 2 2 2 1 1 1 1 1 1 2 2 2 2 1 1 1 2 2 2 2 2 2 3 3 3 4 5 6 5 6 6 8 7 8 7 7
4 4 4 4 4 3 3 2 2 2 2 1 1 1 1 1 1 2 2 2 2 1 1 1 2 2 3 3 3 3 3 4 4 5 5 5 5 6 6 6 7 7 7
5 4 4 4 3 3 3 3 2 2 2 2 1 1 1 1 1 2 1 2 2 1 1 1 2 2 3 3 3 3 4 4 4 4 5 5 5 5 5 5 7 8 7
5 4 4 4 3 3 3 3 3 2 2 2 2 1 1 1 1 2 2 2 2 2 2 2 2 2 3 4 5 6 5 5 5 5 5 6 7 6 6 6 7 8 7
5 4 4 4 4 4 3 3 3 3 3 3 2 2 2 1 2 2 2 2 2 2 2 2 2 2 3 3 5 6 6 7 7 6 7 7 7 7 7 7 7 7 8
5 5 4 4 4 4 3 4 4 3 3 2 2 2 2 2 3 3 3 2 2 2 3 3 3 3 3 4 4 4 5 5 6 6 7 7 7 7 6 7 8 8 8
5 5 5 5 5 5 5 4 4 3 3 2 2 2 3 2 3 3 3 2 2 3 3 3 4 4 4 5 4 5 5 5 5 7 8 8 9 8 6 5 5 6 7
6 5 5 5 5 5 5 4 3 3 3 2 2 2 3 3 2 3 4 2 3 3 3 3 4 5 5 5 4 5 6 6 5 5 5 6 6 6 6 5 5 5 6
4 4 4 5 5 5 4 3 3 3 3 2 2 2 2 3 3 3 4 3 3 3 3 3 3 5 6 6 5 4 6 6 4 4 4 4 4 4 4 4 4 5 6
4 4 4 4 4 4 4 4 3 3 3 3 3 3 2 2 3 4 5 5 4 4 4 3 3 4 6 6 5 5 6 5 3 4 4 4 4 4 4 5 6 6 7
4 4 4 3 3 4 4 4 3 3 3 3 3 3 3 2 3 5 6 6 6 4 3 4 5 5 5 4 5 6 4 3 3 4 5 5 5 5 5 5 6 6 8
5 4 4 4 4 4 3 4 4 4 4 4 4 4 3 3 3 3 3 4 5 5 4 3 4 5 4 4 4 4 3 3 4 5 5 5 5 4 5 5 5 5 6
5 4 4 4 4 4 4 4 4 4 4 5 4 4 4 4 4 4 3 3 3 3 2 2 2 2 3 3 3 3 3 3 4 4 5 5 5 5 5 4 5 5 5
5 5 4 4 4 4 3 3 4 5 5 7 6 5 4 5 5 6 7 7 6 4 3 3 3 4 4 4 4 4 4 4 4 4 5 5 5 5 6 5 5 5 7
6 5 4 4 4 4 4 4 3 4 6 7 8 8 8 7 7 7 7 7 7 6 4 4 5 5 5 4 4 5 5 4 4 5 5 5 5 5 5 5 5 6 6
6 5 5 4 4 4 4 4 4 4 4 4 6 8 9 9 9 8 7 6 5 5 5 5 6 5 5 5 5 5 5 5 4 5 5 5 5 5 6 6 6 6 7
5 4 4 4 4 4 4 4 4 5 5 4 3 4 6 7 7 8 6 5 5 6 6 6 6 6 5 5 5 5 5 6 6 5 5 6 5 5 6 6 6 7 7
4 5 4 4 4 4 4 4 5 5 5 5 5 5 3 3 4 5 5 6 6 6 6 6 6 6 6 6 6 5 6 6 6 6 6 5 5 6 7 7 6 6 6
4 4 5 4 4 5 5 5 5 5 5 5 5 5 6 5 6 6 6 6 6 6 6 6 6 6 6 5 5 6 7 6 6 6 6 6 5 6 6 6 6 6 6
3 4 4 5 4 5 5 5 5 5 6 6 5 5 7 6 6 6 6 6 6 6 5 6 6 5 5 6 6 6 7 7 7 6 6 6 6 6 6 6 6 6 6
4 4 4 4 4 5 5 5 5 5 6 6 5 5 5 6 6 6 6 5 5 5 5 5 6 6 5 6 6 7 7 8 7 7 7 6 6 6 6 6 7 7 7
4 4 4 4 4 5 5 5 5 6 6 6 6 5 6 6 6 6 6 5 5 5 5 5 6 8 9 7 6 7 8 8 7 7 9 8 7 6 6 6 7 7 7
4 4 5 5 5 5 5 6 6 6 6 6 6 6 6 6 6 6 6 5 6 6 7 6 6 7 9 10 9 9 10 11 9 7 7 7 8 8 7 7 6 7 6
4 5 5 4 5 5 5 5 6 6 6 6 5 6 6 6 6 6 5 5 5 6 6 6 8 9 10 9 11 12 12 11 10 9 7 6 7 7 7 6 7 6 6
Wind_Direction
190 187 186 185 182 181 194 195 206 208 211 211 203 189 185 179 171 172 177 182 186 213 216 220 246 266 264 273 273 270 270 271 274 286 293 302 304 309 310 307 306 304 303
190 179 181 173 170 183 197 199 201 205 208 202 194 187 182 178 181 182 186 194 193 198 209 218 243 253 261 267 271 275 275 277 278 287 295 301 299 308 309 307 307 305 304
186 179 176 176 179 190 196 189 188 192 192 178 180 190 197 195 184 189 195 195 206 222 226 232 249 251 264 272 277 275 276 276 277 283 294 299 299 308 310 308 309 306 308
184 182 184 187 187 190 188 180 179 178 178 173 180 199 198 194 191 192 195 198 210 227 241 254 261 261 268 273 273 274 278 278 280 284 290 296 300 307 307 312 314 317 314
185 190 196 190 182 179 176 170 167 169 175 173 169 177 191 203 195 193 202 213 218 221 234 254 265 279 283 280 278 278 276 277 281 285 289 297 301 308 310 315 310 314 310
188 197 196 182 177 179 178 170 168 173 174 173 175 179 198 201 163 192 216 213 217 225 243 254 258 257 269 269 276 285 288 283 281 282 285 289 295 301 305 306 308 312 311
190 195 193 184 183 185 178 175 180 183 178 177 179 181 203 199 177 200 210 223 231 240 248 252 253 261 260 261 270 275 277 278 276 276 279 283 291 297 300 298 299 298 296
191 196 194 187 187 181 181 189 190 183 182 186 183 190 205 214 200 205 193 217 235 247 252 255 260 265 265 268 273 276 278 275 272 271 275 283 290 296 293 292 295 295 290
196 200 197 191 186 181 189 197 192 182 183 190 193 200 210 222 208 205 198 212 231 248 257 259 259 263 277 274 269 275 282 283 282 281 284 288 294 298 298 295 298 300 300
200 200 196 191 188 189 193 194 187 184 189 187 201 213 220 232 217 210 208 218 236 250 258 260 261 267 281 276 267 271 280 289 295 299 293 290 290 290 294 285 282 285 294
188 188 192 190 189 189 186 186 182 181 183 198 211 222 228 238 236 226 219 224 238 251 257 260 264 270 275 278 271 271 282 297 299 294 292 292 291 289 288 283 275 270 272
174 184 189 186 183 178 179 181 180 181 188 208 219 234 235 235 238 240 234 234 239 247 258 263 271 279 278 281 277 284 291 293 289 290 290 291 294 295 296 292 281 271 265
172 182 184 177 180 178 181 182 182 189 199 211 218 232 239 234 239 244 247 248 247 245 254 262 274 280 281 280 283 289 286 275 277 279 282 287 292 293 294 292 286 280 276
179 183 180 181 183 182 189 192 196 199 205 212 220 233 241 242 242 238 238 245 246 249 257 266 272 276 272 277 282 276 268 269 271 273 280 285 290 290 287 292 295 299 294
183 185 187 191 190 189 197 206 209 217 216 216 224 228 234 244 243 233 235 242 240 242 241 251 257 265 265 265 267 268 266 262 262 268 273 280 285 286 287 291 290 291 286
189 195 195 193 192 197 200 215 226 232 234 236 239 239 248 256 261 242 242 247 245 232 222 246 252 254 258 262 264 266 262 260 263 265 267 271 277 282 287 289 286 284 286
199 197 197 196 197 199 204 212 224 227 230 238 241 244 250 257 258 253 251 251 245 233 235 247 250 251 254 256 257 258 262 264 264 261 264 268 272 276 280 284 285 285 286
205 202 201 203 205 206 210 216 221 226 231 236 238 245 251 256 257 256 254 250 246 234 235 242 247 250 251 253 255 257 262 262 257 258 261 264 267 270 274 277 278 280 286
205 204 206 210 211 213 214 217 221 228 237 244 245 244 244 254 257 253 242 236 239 239 238 241 244 247 249 251 252 254 256 257 258 258 259 262 262 265 269 271 274 277 276
210 209 203 208 211 214 215 218 222 227 233 237 239 241 230 226 235 240 232 234 239 243 241 241 242 243 245 247 249 250 253 255 256 254 257 258 259 260 264 267 269 272 273
206 204 202 209 216 217 218 222 225 229 234 240 244 239 229 229 235 239 238 237 238 242 244 246 246 244 242 243 244 246 250 253 253 254 256 257 258 261 263 263 266 267 271
204 205 204 212 216 219 223 226 227 230 235 241 249 247 240 239 243 243 243 243 242 243 244 246 248 246 242 240 241 244 248 252 252 252 254 256 256 258 261 261 263 267 269
206 210 214 217 218 220 224 228 230 233 237 241 244 244 239 239 243 248 251 252 251 249 246 245 250 252 249 246 243 241 245 249 250 250 253 256 256 257 257 260 262 267 269
210 213 217 221 221 222 226 230 233 235 238 240 241 241 241 242 245 249 252 254 254 254 253 252 253 256 259 259 257 252 249 252 252 248 247 251 255 256 256 257 259 262 266
215 218 221 224 227 229 230 232 234 235 237 238 239 241 244 245 247 249 251 252 254 254 255 256 255 258 261 263 263 262 262 263 260 251 245 246 250 250 252 254 256 261 262
218 222 225 226 228 231 234 235 236 236 237 238 239 242 244 246 249 251 252 253 255 257 258 257 257 262 267 265 265 269 269 265 260 252 247 246 247 249 249 250 253 255 261